Yatton Keynell, United Kingdom

8:32 AM BST on April 20, 2019 (GMT +0100)
Yatton Keynell

Weather History for 03740 - July, 1996

Change the Weather History Date:

Monday, July 29, 1996

  Actual Average Record
Temperature  
Mean Temperature 66 °F -  
Max Temperature 73 °F 68 °F - ()
Min Temperature 59 °F 53 °F - ()
Cooling Degree Days 1    
Growing Degree Days 16 (Base 50)    
Moisture  
Dew Point 58 °F    
Average Humidity 79    
Maximum Humidity 100    
Minimum Humidity 53    
Precipitation  
Precipitation 0.00 in 0.08 in - ()
Sea Level Pressure  
Sea Level Pressure 29.92 in    
Wind  
Wind Speed 6 mph ()    
Max Wind Speed 10 mph    
Max Gust Speed -    
Visibility 6.2 miles    
Events Rain    
T = Trace of Precipitation, MM = Missing Value Source: Averaged Metar Reports

Daily Weather History Graph

Daily Weather History Graph

Search for Another Location

Airport or City:

Astronomy

Jul. 29, 1996 Rise Set
Actual Time 5:27 AM BST 9:00 PM BST
Civil Twilight 4:46 AM BST 9:41 PM BST
Nautical Twilight 3:49 AM BST 10:36 PM BST
Astronomical Twilight 2:27 AM BST 11:57 PM BST
Moon 7:57 PM BST (7/29) 4:19 AM BST (7/29)
Length of Visible Light 16h 55m
Length of Day
15h 32m
Waxing Gibbous, 98% of the Moon is Illuminated
Jul 29
Waxing Gibbous
Jul 30
Full
Aug 6
Last Quarter
Aug 14
New
Aug 22
First Quarter

Hourly Weather History & Observations

Time (BST) Temp. Dew Point Humidity Pressure Visibility Wind Dir Wind Speed Gust Speed Precip Events Conditions
12:00 AM 60.8 °F 59.0 °F 94% 29.95 in 6.2 mi SSW 6.9 mph - N/A   Mostly Cloudy
12:50 AM 59.0 °F 57.2 °F 94% 29.95 in 6.2 mi SSW 5.8 mph - N/A   Mostly Cloudy
1:00 AM 59.0 °F 57.2 °F 94% 29.95 in 6.2 mi SSW 5.8 mph - N/A   Mostly Cloudy
1:50 AM 60.8 °F 57.2 °F 88% 29.95 in 6.2 mi SSW 6.9 mph - N/A   Mostly Cloudy
2:00 AM 60.8 °F 57.2 °F 88% 29.95 in 6.2 mi SSW 6.9 mph - N/A   Mostly Cloudy
2:50 AM 59.0 °F 57.2 °F 94% 29.92 in 6.2 mi South 6.9 mph - N/A Rain Light Rain
3:00 AM 59.0 °F 57.2 °F 94% 29.92 in 6.2 mi South 6.9 mph - N/A Rain Light Rain
3:50 AM 60.8 °F 59.0 °F 94% 29.92 in 6.2 mi South 8.1 mph - N/A   Mostly Cloudy
4:00 AM 60.8 °F 59.0 °F 94% 29.92 in 6.2 mi South 8.1 mph - N/A   Mostly Cloudy
4:50 AM 59.0 °F 59.0 °F 100% 29.92 in 6.2 mi South 6.9 mph - N/A   Mostly Cloudy
5:00 AM 59.0 °F 59.0 °F 100% 29.92 in 6.2 mi South 6.9 mph - N/A   Mostly Cloudy
5:50 AM 59.0 °F 57.2 °F 94% 29.92 in 6.2 mi South 5.8 mph - N/A   Scattered Clouds
6:00 AM 59.0 °F 57.2 °F 94% 29.92 in 6.2 mi South 5.8 mph - N/A   Scattered Clouds
6:50 AM 60.8 °F 59.0 °F 94% 29.89 in 6.2 mi South 4.6 mph - N/A   Mostly Cloudy
7:00 AM 60.8 °F 59.0 °F 94% 29.89 in 6.2 mi South 4.6 mph - N/A   Mostly Cloudy
7:50 AM 60.8 °F 59.0 °F 94% 29.92 in 6.2 mi South 5.8 mph - N/A Rain Light Rain Showers
8:00 AM 60.8 °F 59.0 °F 94% 29.92 in 6.2 mi South 5.8 mph - N/A Rain Light Rain Showers
8:50 AM 62.6 °F 59.0 °F 88% 29.92 in 6.2 mi South 6.9 mph - N/A Rain Light Rain Showers
9:00 AM 62.6 °F 59.0 °F 88% 29.92 in 6.2 mi South 6.9 mph - N/A Rain Light Rain Showers
9:50 AM 66.2 °F 59.0 °F 78% 29.92 in 6.2 mi South 6.9 mph - N/A Rain Light Rain Showers
10:00 AM 66.2 °F 59.0 °F 78% 29.92 in 6.2 mi South 6.9 mph - N/A Rain Light Rain Showers
10:50 AM 64.4 °F 59.0 °F 83% 29.92 in 6.2 mi SSW 4.6 mph - N/A   Scattered Clouds
11:00 AM 64.4 °F 59.0 °F 83% 29.92 in 6.2 mi SSW 4.6 mph - N/A   Scattered Clouds
11:50 AM 66.2 °F 59.0 °F 78% 29.92 in 6.2 mi SW 4.6 mph - N/A   Scattered Clouds
12:00 PM 66.2 °F 59.0 °F 78% 29.92 in 6.2 mi SW 4.6 mph - N/A   Scattered Clouds
12:50 PM 68.0 °F 60.8 °F 78% 29.89 in 6.2 mi NW 3.5 mph - N/A   Scattered Clouds
1:00 PM 68.0 °F 60.8 °F 78% 29.89 in 6.2 mi NW 3.5 mph - N/A   Scattered Clouds
1:50 PM 68.0 °F 57.2 °F 68% 29.89 in 6.2 mi WNW 4.6 mph - N/A   Partly Cloudy
2:00 PM 68.0 °F 57.2 °F 68% 29.89 in 6.2 mi WNW 4.6 mph - N/A   Partly Cloudy
2:50 PM 71.6 °F 57.2 °F 60% 29.89 in 6.2 mi West 5.8 mph - N/A   Scattered Clouds
3:00 PM 71.6 °F 57.2 °F 60% 29.89 in 6.2 mi West 5.8 mph - N/A   Scattered Clouds
3:50 PM 73.4 °F 55.4 °F 53% 29.89 in 6.2 mi West 10.4 mph - N/A   Partly Cloudy
4:00 PM 73.4 °F 55.4 °F 53% 29.89 in 6.2 mi West 10.4 mph - N/A   Partly Cloudy
4:50 PM 71.6 °F 57.2 °F 60% 29.89 in 6.2 mi WNW 10.4 mph - N/A   Mostly Cloudy
5:00 PM 71.6 °F 57.2 °F 60% 29.89 in 6.2 mi WNW 10.4 mph - N/A   Mostly Cloudy
5:50 PM 73.4 °F 55.4 °F 53% 29.89 in 6.2 mi WNW 10.4 mph - N/A   Partly Cloudy
6:00 PM 73.4 °F 55.4 °F 53% 29.89 in 6.2 mi WNW 10.4 mph - N/A   Partly Cloudy
6:50 PM 71.6 °F 53.6 °F 53% 29.89 in 6.2 mi West 10.4 mph - N/A   Partly Cloudy
7:00 PM 71.6 °F 53.6 °F 53% 29.89 in 6.2 mi West 10.4 mph - N/A   Partly Cloudy
7:50 PM 69.8 °F 57.2 °F 64% 29.92 in 6.2 mi West 10.4 mph - N/A   Partly Cloudy
8:00 PM 69.8 °F 57.2 °F 64% 29.92 in 6.2 mi West 10.4 mph - N/A   Partly Cloudy
8:50 PM 66.2 °F 59.0 °F 78% 29.92 in 6.2 mi WNW 5.8 mph - N/A   Scattered Clouds
9:00 PM 66.2 °F 59.0 °F 78% 29.92 in 6.2 mi WNW 5.8 mph - N/A   Scattered Clouds
9:50 PM 64.4 °F 57.2 °F 77% 29.95 in 6.2 mi NNW 3.5 mph - N/A   Mostly Cloudy
10:00 PM 64.4 °F 57.2 °F 77% 29.95 in 6.2 mi NNW 3.5 mph - N/A   Mostly Cloudy
10:50 PM 62.6 °F 57.2 °F 82% 29.95 in - NNW 5.8 mph - N/A   Clear
11:00 PM 62.6 °F 57.2 °F 82% 29.95 in - NNW 5.8 mph - N/A   Clear
11:50 PM 62.6 °F 57.2 °F 82% 29.95 in - NW 8.1 mph - N/A   Clear